When you browse on this site, cookies collect data to enhance your experience and personalize the content and advertising you see.
Visit our Privacy Policy to learn more. By continuing to use the site, you agree to this use of cookies and data.

Hourly Weather Varfolomeevka

Today, 11 August, Tuesday

Time Temperature Precipitation Wind Pressure Humidity
00:00 +20°C° 0 mm 2 mps 756 mmHg 52%
01:00 +19°C° 0 mm 3 mps 756 mmHg 54%
02:00 +18°C° 0 mm 3 mps 756 mmHg 56%
03:00 +17°C° 0 mm 3 mps 756 mmHg 58%
04:00 +18°C° 0 mm 3 mps 756 mmHg 59%
05:00 +18°C° 0 mm 3 mps 756 mmHg 59%
06:00 +18°C° 0 mm 3 mps 756 mmHg 59%
07:00 +19°C° 0 mm 3 mps 756 mmHg 53%
08:00 +20°C° 0 mm 4 mps 756 mmHg 48%
09:00 +22°C° 0 mm 4 mps 756 mmHg 42%
10:00 +23°C° 0 mm 4 mps 756 mmHg 39%
11:00 +25°C° 0 mm 4 mps 756 mmHg 36%
12:00 +26°C° 0 mm 4 mps 756 mmHg 33%
13:00 +26°C° 0 mm 4 mps 756 mmHg 31%
14:00 +27°C° 0 mm 4 mps 756 mmHg 30%
15:00 +27°C° 0 mm 4 mps 755 mmHg 28%
16:00 +27°C° 0 mm 3 mps 755 mmHg 28%
17:00 +27°C° 0 mm 3 mps 755 mmHg 29%
18:00 +27°C° 0 mm 3 mps 756 mmHg 29%
19:00 +26°C° 0 mm 3 mps 756 mmHg 32%
20:00 +24°C° 0 mm 2 mps 756 mmHg 34%
21:00 +23°C° 0 mm 2 mps 756 mmHg 37%
22:00 +23°C° 0 mm 2 mps 756 mmHg 40%
23:00 +21°C° 0 mm 2 mps 756 mmHg 43%

Tomorrow, 12 August, Wednesday

Time Temperature Precipitation Wind Pressure Humidity
00:00 +20°C° 0 mm 2 mps 756 mmHg 45%
01:00 +20°C° 0 mm 2 mps 756 mmHg 47%
02:00 +19°C° 0 mm 2 mps 755 mmHg 49%
03:00 +20°C° 0 mm 1 mps 755 mmHg 51%
04:00 +20°C° 0 mm 1 mps 755 mmHg 50%
05:00 +21°C° 0 mm 1 mps 756 mmHg 48%
06:00 +21°C° 0 mm 1 mps 756 mmHg 47%
07:00 +23°C° 0 mm 1 mps 756 mmHg 42%
08:00 +24°C° 0 mm 1 mps 756 mmHg 38%
09:00 +26°C° 0 mm 1 mps 756 mmHg 34%
10:00 +27°C° 0 mm 1 mps 755 mmHg 31%
11:00 +28°C° 0 mm 1 mps 755 mmHg 29%
12:00 +29°C° 0 mm 2 mps 755 mmHg 27%
13:00 +30°C° 0 mm 2 mps 755 mmHg 26%
14:00 +30°C° 0 mm 2 mps 754 mmHg 25%
15:00 +31°C° 0 mm 2 mps 754 mmHg 24%
16:00 +31°C° 0 mm 2 mps 754 mmHg 25%
17:00 +30°C° 0 mm 2 mps 754 mmHg 26%
18:00 +30°C° 0 mm 2 mps 753 mmHg 26%
19:00 +29°C° 0 mm 2 mps 753 mmHg 29%
20:00 +28°C° 0 mm 2 mps 753 mmHg 31%
21:00 +28°C° 0 mm 2 mps 753 mmHg 33%
22:00 +27°C° 0 mm 2 mps 753 mmHg 37%
23:00 +26°C° 0 mm 2 mps 753 mmHg 40%

Day after tomorrow, 13 August, Thursday

Time Temperature Precipitation Wind Pressure Humidity
00:00 +25°C° 0 mm 2 mps 753 mmHg 44%
01:00 +25°C° 0.6 mm 2 mps 752 mmHg 49%
02:00 +24°C° 0.6 mm 3 mps 752 mmHg 55%
03:00 +24°C° 0.6 mm 3 mps 752 mmHg 60%
04:00 +24°C° 0.3 mm 3 mps 752 mmHg 60%
05:00 +24°C° 0.3 mm 2 mps 751 mmHg 61%
06:00 +24°C° 0.3 mm 2 mps 751 mmHg 61%
07:00 +25°C° 0.1 mm 2 mps 751 mmHg 56%
08:00 +26°C° 0.1 mm 3 mps 751 mmHg 51%
09:00 +28°C° 0.1 mm 4 mps 751 mmHg 46%
10:00 +29°C° 0 mm 4 mps 751 mmHg 43%
11:00 +29°C° 0 mm 5 mps 751 mmHg 40%
12:00 +30°C° 0 mm 5 mps 750 mmHg 37%
13:00 +30°C° 0 mm 6 mps 750 mmHg 38%
14:00 +29°C° 0 mm 6 mps 750 mmHg 39%
15:00 +29°C° 0 mm 7 mps 750 mmHg 40%
16:00 +28°C° 0 mm 7 mps 750 mmHg 38%
17:00 +28°C° 0 mm 7 mps 750 mmHg 36%
18:00 +27°C° 0 mm 6 mps 750 mmHg 34%
19:00 +26°C° 0 mm 6 mps 751 mmHg 38%
20:00 +23°C° 0 mm 6 mps 751 mmHg 43%
21:00 +22°C° 0 mm 6 mps 752 mmHg 48%
22:00 +21°C° 0 mm 5 mps 752 mmHg 51%
23:00 +20°C° 0 mm 4 mps 752 mmHg 53%

14 August, Friday

Time Temperature Precipitation Wind Pressure Humidity
00:00 +19°C° 0 mm 3 mps 752 mmHg 56%
01:00 +19°C° 0 mm 3 mps 752 mmHg 58%
02:00 +18°C° 0 mm 3 mps 752 mmHg 60%
03:00 +18°C° 0 mm 4 mps 752 mmHg 61%
04:00 +18°C° 0 mm 4 mps 752 mmHg 63%
05:00 +17°C° 0 mm 5 mps 752 mmHg 65%
06:00 +17°C° 0 mm 5 mps 752 mmHg 67%
07:00 +19°C° 0 mm 5 mps 752 mmHg 63%
08:00 +20°C° 0 mm 6 mps 752 mmHg 59%
09:00 +21°C° 0 mm 6 mps 752 mmHg 56%
10:00 +21°C° 0 mm 6 mps 752 mmHg 53%
11:00 +22°C° 0 mm 6 mps 752 mmHg 50%
12:00 +22°C° 0 mm 7 mps 752 mmHg 47%
13:00 +22°C° 0 mm 7 mps 752 mmHg 45%
14:00 +23°C° 0 mm 7 mps 752 mmHg 44%
15:00 +23°C° 0 mm 7 mps 752 mmHg 42%
16:00 +23°C° 0 mm 7 mps 752 mmHg 42%
17:00 +22°C° 0 mm 6 mps 752 mmHg 43%
18:00 +22°C° 0 mm 6 mps 752 mmHg 43%
19:00 +21°C° 0 mm 6 mps 752 mmHg 46%
20:00 +20°C° 0 mm 6 mps 752 mmHg 50%
21:00 +19°C° 0 mm 6 mps 753 mmHg 54%
22:00 +17°C° 0 mm 6 mps 752 mmHg 58%
23:00 +16°C° 0 mm 6 mps 752 mmHg 62%

15 August, Saturday

Time Temperature Precipitation Wind Pressure Humidity
00:00 +15°C° 0 mm 6 mps 752 mmHg 67%
01:00 +15°C° 0 mm 6 mps 752 mmHg 68%
02:00 +14°C° 0 mm 6 mps 752 mmHg 70%
03:00 +14°C° 0 mm 6 mps 752 mmHg 71%
04:00 +14°C° 0 mm 6 mps 752 mmHg 70%
05:00 +14°C° 0 mm 6 mps 752 mmHg 70%
06:00 +15°C° 0 mm 6 mps 752 mmHg 69%
07:00 +15°C° 0 mm 6 mps 753 mmHg 68%
08:00 +15°C° 0 mm 6 mps 753 mmHg 66%
09:00 +15°C° 0 mm 6 mps 753 mmHg 65%
10:00 +16°C° 0 mm 6 mps 753 mmHg 61%
11:00 +17°C° 0 mm 6 mps 753 mmHg 58%
12:00 +17°C° 0 mm 7 mps 754 mmHg 55%
13:00 +17°C° 0 mm 7 mps 754 mmHg 54%
14:00 +18°C° 0 mm 7 mps 754 mmHg 53%
15:00 +18°C° 0 mm 7 mps 754 mmHg 52%
16:00 +18°C° 0 mm 7 mps 754 mmHg 52%
17:00 +17°C° 0 mm 7 mps 754 mmHg 53%
18:00 +17°C° 0 mm 7 mps 754 mmHg 53%
19:00 +16°C° 0 mm 6 mps 754 mmHg 57%
20:00 +16°C° 0 mm 6 mps 754 mmHg 61%
21:00 +15°C° 0 mm 5 mps 755 mmHg 65%
22:00 +14°C° 0 mm 5 mps 754 mmHg 67%
23:00 +14°C° 0 mm 5 mps 754 mmHg 68%

16 August, Sunday

Time Temperature Precipitation Wind Pressure Humidity
00:00 +14°C° 0 mm 5 mps 754 mmHg 69%
01:00 +13°C° 0 mm 5 mps 754 mmHg 70%
02:00 +13°C° 0 mm 5 mps 754 mmHg 70%
03:00 +13°C° 0 mm 4 mps 754 mmHg 71%
04:00 +13°C° 0 mm 5 mps 754 mmHg 71%
05:00 +12°C° 0 mm 5 mps 754 mmHg 72%
06:00 +12°C° 0 mm 5 mps 754 mmHg 73%
07:00 +14°C° 0 mm 5 mps 754 mmHg 67%
08:00 +15°C° 0 mm 5 mps 754 mmHg 60%
09:00 +17°C° 0 mm 6 mps 754 mmHg 54%
10:00 +19°C° 0 mm 6 mps 754 mmHg 50%
11:00 +20°C° 0 mm 6 mps 754 mmHg 45%
12:00 +21°C° 0 mm 7 mps 754 mmHg 41%
13:00 +21°C° 0 mm 7 mps 754 mmHg 44%
14:00 +20°C° 0 mm 7 mps 754 mmHg 47%
15:00 +20°C° 0 mm 7 mps 754 mmHg 50%
16:00 +19°C° 0 mm 6 mps 754 mmHg 54%
17:00 +19°C° 0 mm 6 mps 754 mmHg 57%
18:00 +17°C° 0 mm 5 mps 754 mmHg 61%
19:00 +17°C° 0 mm 5 mps 754 mmHg 63%
20:00 +17°C° 0 mm 5 mps 754 mmHg 64%
21:00 +17°C° 0 mm 5 mps 755 mmHg 66%
22:00 +17°C° 0 mm 4 mps 754 mmHg 69%
23:00 +17°C° 0 mm 4 mps 754 mmHg 72%
Show more